GFSFLT1_500_rhum_015.txt.gz
RH
24 34 56 38 26 76 99 98 98 98 91 97 85 50 84 93 82 71 68 74 66 67 52 27 18 16 14 13 13 13 14 14
75 57 41 36 55 85 98 92 88 59 36 51 77 82 97 86 70 65 79 72 70 48 37 28 21 19 19 19 20 20 20 19
100 95 83 84 100 97 70 53 50 44 48 62 76 91 72 65 69 73 76 75 56 34 26 23 24 26 29 28 26 26 25 23
84 98 99 74 75 74 74 61 52 53 54 58 57 60 70 76 82 79 59 36 29 33 38 41 40 38 35 34 29 28 26 26
98 74 76 82 97 93 76 75 63 66 56 59 74 81 88 90 80 64 58 56 56 50 48 44 38 33 31 30 30 31 29 25
84 91 76 85 78 69 64 72 75 66 72 87 97 98 95 76 66 49 39 39 39 42 38 36 35 33 34 38 37 29 23 20
75 58 70 80 96 85 66 68 79 86 90 91 80 58 45 41 38 39 38 35 35 34 36 41 42 44 42 35 25 20 15 13
77 79 99 92 77 76 82 88 95 91 80 65 54 46 38 34 34 35 33 33 33 37 43 48 48 42 30 23 19 15 11 10
99 98 90 76 70 80 73 68 48 41 42 40 35 33 31 34 37 33 34 43 45 50 54 50 40 33 27 20 16 12 13 50
78 79 72 77 69 63 47 46 50 50 45 42 38 42 44 38 35 41 49 50 48 48 47 44 30 24 16 12 23 28 86 54
44 65 76 73 63 56 53 56 58 56 51 48 47 45 39 37 42 46 46 46 40 48 42 28 18 12 11 58 74 76 100 95
28 34 45 64 57 56 61 66 59 52 51 54 53 45 40 34 32 31 30 33 44 43 30 19 11 11 43 73 56 96 99 96
28 33 46 54 65 68 70 63 61 64 66 57 47 39 31 26 31 33 44 52 44 32 19 10 11 16 20 42 97 100 100 67
30 35 42 53 58 61 66 73 70 62 53 44 40 36 28 23 34 50 53 49 30 18 11 10 15 17 38 82 97 95 61 60
37 46 57 59 66 77 77 71 62 52 45 41 34 25 24 32 48 57 54 33 21 12 10 13 20 47 66 64 62 61 58 50
37 47 63 76 87 86 78 64 52 47 43 32 29 28 39 52 60 55 28 20 12 9 13 17 30 43 68 60 64 60 51 42
39 50 74 89 87 76 68 60 53 41 36 34 34 43 55 66 59 34 22 12 10 14 19 30 50 65 58 63 63 55 43 36
39 58 78 82 74 72 66 56 45 40 39 41 46 51 65 60 38 23 12 12 16 39 70 62 69 60 54 57 63 49 40 29
49 73 76 76 72 66 58 53 50 50 49 51 55 60 62 43 24 14 12 13 18 46 65 62 74 59 57 64 58 45 39 25

GFSFLT1_500_rhum_018.txt.gz
RH
15 21 47 50 50 39 71 76 88 96 96 82 63 50 56 74 95 96 73 66 66 66 72 70 56 35 22 21 22 24 23 20
38 47 49 58 63 70 96 97 95 88 72 86 66 50 50 61 54 56 61 69 74 72 65 49 27 24 25 24 26 27 28 26
45 31 57 82 95 98 78 52 47 40 58 60 53 61 64 68 72 76 80 78 66 44 27 21 22 30 36 38 35 34 36 35
76 92 88 98 81 68 65 52 65 78 77 64 64 69 72 72 70 71 63 43 34 34 40 50 58 55 43 37 36 32 23 18
55 99 74 86 75 51 40 58 86 91 70 54 56 68 76 78 71 54 45 49 55 60 54 43 35 29 24 22 19 16 16 18
84 94 97 78 63 64 79 99 76 63 63 68 73 85 74 64 59 63 62 55 45 38 34 26 22 22 20 17 17 20 25 37
71 96 75 69 89 100 96 68 88 91 88 81 74 64 61 60 56 51 43 39 37 28 24 19 16 17 18 21 29 43 48 38
46 51 95 65 77 57 53 68 96 79 68 63 52 54 54 50 43 39 39 34 27 24 18 19 20 22 31 43 52 47 43 35
30 33 32 41 43 45 71 71 63 56 44 44 51 53 48 47 46 39 30 26 23 18 20 25 32 45 51 55 43 40 22 9
22 25 27 32 38 44 56 54 50 51 55 53 50 53 55 45 38 32 30 24 19 24 27 30 36 45 54 46 35 12 9 16
18 20 22 24 29 35 40 42 74 56 55 58 63 58 46 38 35 33 28 26 26 28 33 38 46 53 45 27 8 10 16 24
22 20 21 23 27 33 44 100 79 68 67 67 60 50 44 41 36 29 29 29 30 36 40 50 50 38 16 8 11 18 24 46
26 25 24 24 26 33 44 56 66 71 71 68 59 53 46 38 33 35 35 38 44 48 54 47 31 14 8 12 18 23 50 62
29 28 28 29 32 33 43 59 67 68 69 64 57 50 46 44 43 42 39 45 48 51 41 27 14 9 13 22 38 53 58 62
33 32 33 34 36 37 38 53 67 72 70 65 57 56 53 49 44 41 46 50 52 38 24 14 10 13 28 48 54 56 58 57
35 34 37 40 39 33 42 67 78 79 70 64 64 58 49 42 42 49 52 51 37 24 14 11 12 19 40 54 60 59 57 66
38 37 41 45 44 40 67 84 84 76 74 69 68 50 46 46 48 59 52 38 25 15 12 12 16 37 53 55 68 64 68 64
42 41 44 48 50 63 88 90 84 81 79 72 54 52 52 55 60 53 36 25 16 13 12 16 29 56 62 66 74 76 72 54
47 45 49 60 63 82 89 86 86 89 76 64 60 59 61 64 51 34 25 16 14 14 12 20 40 56 55 73 79 78 67 49

GFSFLT1_500_rhum_021.txt.gz
RH
22 26 46 62 64 54 62 88 99 92 97 93 69 73 61 64 74 84 68 63 70 80 80 77 70 55 34 26 25 24 23 22
38 50 46 47 57 67 70 83 93 75 70 51 61 59 66 62 51 51 66 82 87 88 74 52 32 27 28 31 34 35 32 28
22 27 53 81 78 81 85 79 56 34 30 42 67 74 64 58 61 73 75 70 60 47 43 41 44 47 50 47 35 25 17 17
25 33 54 75 77 83 82 70 47 50 64 81 82 61 59 66 66 64 58 52 53 54 55 55 56 50 35 24 16 14 14 14
46 66 79 89 99 84 50 38 43 82 95 91 71 48 57 58 65 55 55 60 62 61 59 51 40 26 19 12 13 15 16 19
55 46 37 45 46 38 49 46 49 92 50 39 57 66 64 59 59 65 72 66 57 49 43 32 26 20 14 16 19 20 23 26
38 32 25 25 26 32 42 31 29 29 48 70 93 80 62 55 57 58 53 50 46 37 32 31 26 21 20 21 22 28 32 35
23 22 20 18 19 20 20 22 24 29 36 53 68 51 49 49 50 53 55 45 40 36 33 26 18 18 22 23 33 38 37 36
16 17 17 18 19 20 21 24 27 31 37 39 39 45 54 57 57 48 46 44 40 34 27 26 32 30 30 36 38 39 33 22
22 22 21 20 20 20 21 22 24 25 25 47 86 87 60 58 55 53 51 48 42 36 36 33 31 32 39 44 43 32 17 7
24 26 27 27 25 24 23 23 25 26 31 39 43 54 63 66 66 62 53 46 41 39 34 34 34 39 46 40 26 10 8 10
32 35 35 32 30 29 27 28 30 31 31 35 53 66 74 68 59 50 48 45 41 40 38 39 43 47 34 21 9 10 13 23
32 34 35 35 36 34 33 32 35 39 39 51 64 72 68 61 58 59 55 48 48 40 42 47 47 31 16 10 11 13 30 36
20 25 32 38 40 39 38 39 45 46 51 57 69 69 65 64 72 65 57 49 40 47 49 41 27 13 10 12 12 23 35 46
20 24 36 44 43 41 40 47 52 59 53 67 74 72 72 80 70 65 51 42 47 47 37 27 10 10 13 12 17 33 52 58
22 26 40 50 48 44 44 54 65 61 67 80 80 79 84 77 70 50 45 50 47 38 26 9 10 13 12 14 28 52 53 70
24 26 36 56 57 50 51 64 70 66 83 88 90 94 86 69 52 50 54 52 38 23 9 10 13 13 13 24 48 55 69 74
27 27 35 57 65 56 59 69 69 84 96 99 100 88 72 58 60 57 53 41 21 8 9 12 15 12 21 41 60 66 74 74
31 33 35 53 64 60 58 62 76 100 100 98 86 78 68 65 61 57 49 23 8 10 12 15 14 17 28 48 61 67 74 75

GFSFLT1_500_rhum_024.txt.gz
RH
27 32 40 55 66 66 66 74 81 96 96 90 62 40 65 80 76 69 70 73 79 88 94 84 64 49 42 38 33 31 34 36
22 29 46 37 39 48 63 84 93 96 80 63 45 73 87 84 81 71 59 66 64 55 47 44 45 46 52 54 56 55 52 38
20 23 26 33 43 46 61 62 69 66 57 41 57 95 88 63 52 48 53 57 59 67 78 80 78 74 67 62 53 41 34 28
23 29 37 48 49 60 79 81 79 48 27 26 29 53 38 39 53 67 66 62 63 67 74 74 65 58 51 41 36 32 27 20
32 43 56 49 41 65 58 36 22 18 19 21 24 24 24 29 60 90 75 68 63 61 61 57 52 46 41 38 33 30 28 26
53 56 35 22 18 17 16 16 17 18 20 20 21 22 27 35 54 64 67 58 62 62 57 51 49 45 39 35 30 26 29 29
34 21 17 15 17 17 18 18 19 19 19 19 20 21 26 29 42 60 78 91 61 58 56 54 47 43 34 30 34 35 31 26
16 16 17 18 20 21 20 20 20 19 18 19 20 22 26 28 35 52 66 66 69 68 60 49 44 36 35 40 38 29 28 27
18 20 21 25 27 28 26 25 24 23 23 23 25 28 29 30 34 43 57 65 65 57 49 47 43 49 51 35 29 28 27 27
23 23 29 31 31 32 31 31 30 30 30 31 33 34 36 35 33 48 63 66 57 52 53 51 56 51 32 30 32 29 22 10
25 26 28 29 27 31 34 36 36 36 36 37 40 42 43 42 45 61 68 68 63 58 57 63 45 33 34 36 30 19 8 7
20 20 20 23 24 27 33 40 42 42 42 42 42 45 47 52 58 70 72 69 66 69 66 46 36 36 39 31 17 7 7 11
18 18 18 20 21 23 29 40 45 47 47 42 46 51 62 62 68 74 78 79 76 64 50 42 42 40 34 15 7 7 11 12
21 21 21 22 22 22 24 34 46 54 55 51 50 57 70 65 79 85 84 74 60 55 54 56 42 37 15 7 8 11 12 14
22 22 22 22 23 24 26 28 42 63 64 56 54 62 70 73 91 89 80 66 71 77 62 45 40 22 8 9 10 13 12 18
24 24 24 24 24 27 30 32 40 57 60 59 58 66 65 94 98 98 82 80 86 68 56 46 28 8 10 10 13 12 17 28
26 25 26 26 28 32 37 41 46 64 63 58 56 65 95 100 100 94 84 86 71 56 49 34 9 9 12 13 15 18 24 39
27 28 30 30 33 39 48 52 68 62 61 66 90 94 100 100 98 75 83 88 51 46 37 13 8 12 13 17 19 28 31 50
31 33 34 37 46 52 61 71 58 71 93 99 94 98 100 100 97 97 100 83 55 35 15 9 10 14 17 22 28 34 40 67

GFSFLT1_500_rhum_030.txt.gz
RH
22 20 21 20 29 38 43 35 30 34 32 35 55 62 43 16 16 16 15 16 17 18 19 20 28 40 47 52 72 90 81 61
27 27 27 20 16 13 13 21 24 27 38 54 51 21 15 17 17 18 20 21 22 21 20 21 25 36 46 48 46 50 64 68
28 24 19 13 14 12 20 30 35 31 48 27 16 16 16 17 19 23 26 27 27 28 28 29 31 34 35 34 40 49 62 69
19 17 18 20 22 19 21 29 20 32 30 17 18 18 20 21 22 26 28 29 31 34 36 37 38 37 37 34 39 54 59 67
20 19 26 23 25 23 23 16 19 21 19 20 19 19 19 19 22 28 30 34 38 40 41 43 43 43 37 32 41 62 66 63
16 16 25 22 21 20 16 17 21 23 22 21 20 17 17 21 25 30 34 37 43 44 46 47 41 39 34 31 56 71 76 71
15 13 16 17 15 15 19 24 24 22 21 20 20 22 22 26 30 35 41 43 46 50 50 48 47 41 37 48 72 81 78 66
16 16 13 14 16 19 23 21 19 18 18 19 20 20 24 26 32 36 43 47 59 60 55 52 50 43 51 66 84 85 77 67
13 14 18 20 21 22 21 18 17 17 18 20 22 23 25 25 28 29 30 33 95 87 57 56 49 52 62 75 78 79 70 53
16 14 15 17 18 17 17 17 18 19 20 21 22 24 25 27 28 30 31 84 70 56 60 52 57 69 74 76 85 71 48 44
14 14 16 17 17 18 20 20 20 22 23 24 25 26 27 29 30 32 100 55 54 66 58 64 79 75 75 78 66 41 40 39
16 16 16 18 19 20 21 20 19 25 28 29 28 30 30 31 32 38 52 59 67 62 72 78 75 74 79 73 64 60 61 86
16 18 18 19 19 19 21 28 31 33 32 31 32 33 33 34 45 52 93 74 76 81 80 75 73 78 81 76 72 82 89 91
20 18 18 20 24 29 30 34 36 33 34 35 35 37 47 60 61 63 71 80 90 88 81 81 89 90 93 100 91 99 96 40
23 24 22 24 28 32 32 34 39 42 42 43 48 63 72 71 71 70 88 95 93 85 92 91 84 95 100 100 97 95 39 28
30 38 34 40 34 43 48 49 51 51 50 54 62 70 75 80 69 69 96 92 88 87 89 91 98 100 100 100 98 92 40 21
35 37 52 50 51 51 46 47 50 58 59 61 67 79 72 67 75 88 88 92 94 100 92 86 100 100 100 100 92 45 21 13
39 41 47 50 44 59 65 53 53 55 62 74 72 65 76 84 72 82 100 99 100 100 100 100 100 100 100 100 85 32 13 14
22 28 32 40 51 61 61 54 61 62 59 52 59 78 87 89 95 99 92 82 96 100 100 100 100 100 98 87 39 14 14 17

GFSFLT1_500_rhum_033.txt.gz
RH
13 11 14 22 17 29 43 35 20 30 31 47 58 64 22 17 18 20 22 25 26 28 30 32 35 37 38 38 36 34 32 28
18 10 9 15 18 13 13 23 18 44 22 40 49 16 18 19 20 22 22 24 24 28 32 38 41 40 41 44 41 38 38 29
18 10 11 13 13 13 12 23 23 16 23 45 19 19 20 21 20 23 24 24 26 27 32 37 41 42 46 46 43 44 37 30
17 17 13 12 12 28 34 91 22 23 20 21 20 21 21 20 23 24 22 22 24 27 32 39 44 47 49 46 44 46 38 37
25 18 15 12 24 33 43 20 16 20 22 23 20 19 20 20 20 20 20 21 23 26 29 30 32 42 69 65 46 48 44 47
26 32 17 16 18 25 38 16 20 23 21 18 18 18 17 18 18 20 21 22 22 23 24 25 28 38 86 59 48 48 55 58
43 22 20 20 22 14 16 19 23 21 18 16 16 17 18 19 20 21 21 22 22 23 26 29 32 84 71 49 52 58 61 55
24 15 15 25 16 19 19 20 20 17 16 18 18 20 20 21 21 23 25 25 26 27 29 54 88 63 55 57 63 70 64 71
14 15 17 17 17 17 16 16 16 18 20 20 20 20 20 24 27 29 29 31 31 33 38 74 85 69 58 65 77 70 67 73
18 16 14 14 15 16 16 16 18 20 21 20 21 24 31 32 32 31 32 35 38 46 53 88 100 97 61 81 79 81 81 85
14 13 14 15 16 18 18 18 18 19 24 32 35 36 36 34 34 38 43 47 71 63 62 63 63 66 73 77 76 77 72 65
14 14 15 16 19 20 20 19 19 26 32 38 40 38 39 48 46 47 56 64 100 82 68 60 76 79 71 77 69 76 64 67
15 16 18 20 20 24 29 29 29 29 36 45 49 54 61 59 58 56 65 72 93 68 60 73 74 72 72 77 71 92 100 100
17 17 16 16 17 26 48 66 70 69 65 56 54 54 52 56 55 53 60 72 62 78 72 69 79 78 90 100 98 92 100 100
17 13 11 14 16 24 35 56 79 87 81 78 60 50 51 52 53 65 69 63 78 85 80 78 70 87 100 100 97 100 99 98
29 20 28 47 57 59 80 91 94 82 91 89 64 46 59 59 59 62 66 78 70 70 82 76 75 74 99 100 99 99 100 98
32 32 24 50 51 75 80 74 77 96 79 77 73 65 61 59 70 80 84 85 93 100 100 100 100 100 100 100 100 100 99 71
27 28 27 15 15 24 55 78 93 83 98 84 56 68 76 78 81 87 74 76 93 96 100 100 100 100 100 100 100 97 78 38
11 14 18 25 30 49 63 84 90 95 78 54 74 84 86 90 94 86 91 96 100 100 100 100 100 100 100 100 98 71 34 17

GFSFLT1_500_rhum_036.txt.gz
RH
23 30 26 16 19 14 13 16 23 21 43 22 25 49 18 16 17 20 20 20 20 22 26 29 30 31 36 39 46 49 53 49
21 30 30 24 15 12 13 18 32 28 18 31 44 18 19 20 20 18 18 19 21 26 25 28 30 28 30 34 41 57 68 80
17 21 20 20 20 23 43 53 73 20 20 23 22 20 20 21 19 18 19 20 23 25 28 27 28 27 27 28 31 34 48 88
15 18 17 15 16 30 44 63 48 19 20 22 21 20 23 21 20 20 21 21 22 24 25 26 26 27 29 30 33 43 72 100
29 27 35 18 30 32 53 54 44 21 22 24 21 23 21 19 20 20 21 22 23 25 26 28 30 30 31 39 72 79 100 62
22 54 46 45 39 43 34 38 37 22 24 25 22 20 18 20 21 21 20 20 24 28 30 30 29 30 32 37 84 100 100 80
20 30 39 38 22 73 58 45 32 23 24 20 18 20 21 21 20 19 20 25 29 30 30 30 34 36 42 48 51 75 83 89
32 19 15 16 22 54 42 31 20 18 18 20 21 21 20 19 19 22 25 29 31 32 39 44 46 53 62 60 59 56 57 58
16 22 17 16 30 28 28 26 18 18 20 20 19 18 17 17 19 22 27 32 41 46 48 51 67 62 86 85 62 59 66 57
20 17 15 14 39 18 17 18 18 19 20 20 20 19 17 21 27 32 37 46 53 53 58 60 67 73 95 92 68 76 73 72
16 16 16 17 17 17 18 19 20 22 25 29 39 51 52 53 52 53 59 58 56 54 55 57 58 68 66 64 86 86 79 73
17 18 18 19 20 20 19 19 21 30 50 66 78 84 85 85 75 64 59 58 54 56 62 62 62 61 70 94 95 76 83 82
16 16 18 20 21 21 19 26 43 51 59 80 93 98 100 89 84 86 60 56 64 62 56 53 61 73 84 86 84 95 100 100
16 17 14 13 15 33 49 52 52 68 80 100 99 94 88 83 88 80 64 59 54 61 63 65 70 67 68 69 76 99 100 100
12 9 7 8 7 10 42 52 62 85 89 89 85 83 94 82 83 76 71 67 69 71 66 69 74 76 89 91 90 93 99 99
20 22 10 7 8 19 12 44 35 83 100 100 100 100 94 93 83 98 72 76 72 75 78 86 88 94 100 100 100 100 100 100
10 10 10 10 9 47 13 40 48 93 88 88 96 93 85 94 68 72 77 85 89 97 96 95 91 100 100 100 100 100 100 100
25 20 14 10 10 12 21 41 63 95 89 87 97 94 73 66 79 84 90 91 95 94 99 100 100 100 100 100 100 100 98 82
11 11 11 12 16 27 38 54 93 90 78 76 76 79 84 90 92 86 82 87 91 100 100 100 100 100 100 100 100 90 48 16

GFSFLT1_500_rhum_042.txt.gz
RH
33 32 32 38 43 25 20 16 18 17 17 23 26 18 49 36 14 17 17 17 18 16 16 16 16 17 17 16 16 18 24 27
25 22 19 17 20 18 22 31 29 25 26 15 37 36 18 16 16 18 17 17 15 16 16 17 17 16 16 17 20 24 28 28
32 22 17 16 15 25 52 58 65 59 20 36 28 19 18 18 19 18 15 15 16 17 17 16 17 18 22 26 29 35 40 36
31 28 24 19 16 21 32 52 68 57 22 22 19 18 18 18 19 16 15 15 17 17 16 18 20 26 31 36 43 54 46 45
33 29 30 28 31 39 36 44 57 70 43 24 22 21 19 20 20 16 18 26 27 25 26 30 44 42 41 48 54 49 54 75
55 63 47 65 67 66 67 56 59 85 60 40 33 22 30 54 71 53 43 58 64 46 56 66 68 60 61 59 86 63 69 73
46 46 90 100 100 100 78 97 88 94 85 40 49 36 47 51 73 74 78 82 60 59 63 75 82 83 78 94 89 98 82 57
42 52 85 71 84 91 70 100 84 61 52 35 45 36 34 37 73 80 88 88 85 77 76 94 94 99 90 100 92 66 58 63
19 43 50 62 83 85 79 96 62 38 27 28 34 34 22 41 85 89 99 100 96 96 100 100 98 100 96 82 85 94 92 76
17 20 28 38 51 62 92 32 21 21 20 22 22 33 44 70 85 99 100 98 100 100 100 100 99 99 92 100 83 83 99 75
16 16 16 18 22 26 20 21 22 20 20 23 20 37 53 78 88 94 94 100 100 100 100 95 87 98 100 100 80 73 72 76
20 17 15 16 17 17 17 20 22 38 28 20 38 57 63 78 77 82 96 93 99 100 100 98 100 100 94 68 78 84 98 89
30 39 29 21 18 17 20 28 44 56 64 50 64 68 84 82 91 74 77 100 100 100 100 100 93 100 84 80 81 82 88 77
63 57 48 36 21 22 31 40 52 67 71 87 84 92 78 55 71 72 59 72 98 100 100 99 99 96 90 85 91 88 99 100
33 30 27 24 22 30 42 57 63 64 60 55 52 44 43 74 66 52 56 81 99 100 100 100 100 88 85 86 100 100 100 78
25 21 18 23 32 34 44 37 30 25 32 51 27 24 28 30 36 54 71 95 99 99 82 74 91 88 91 96 86 92 61 5
26 19 18 20 14 7 8 6 6 5 5 8 18 22 26 32 34 42 66 86 66 81 96 98 100 100 100 100 32 5 5 6
28 25 22 14 8 8 6 6 6 6 6 10 16 23 33 38 39 43 53 67 72 100 100 100 100 99 47 8 5 5 8 10
28 23 12 9 8 7 7 7 7 8 10 14 21 32 42 48 47 44 51 72 100 100 98 95 85 42 7 5 6 8 10 13

GFSFLT1_500_rhum_045.txt.gz
RH
47 45 48 53 52 44 37 27 25 24 21 22 24 25 32 56 58 28 14 15 15 16 16 15 14 15 16 15 15 17 18 17
34 34 40 46 28 18 17 17 18 20 21 22 18 21 25 56 19 15 16 17 16 15 15 14 15 16 17 18 21 21 17 21
29 29 26 24 28 26 34 32 44 58 47 24 42 42 30 18 18 20 18 16 15 15 16 15 19 25 27 31 36 34 30 32
35 25 19 18 19 25 39 48 62 73 62 24 35 23 21 20 19 18 19 16 17 20 38 32 42 37 44 43 46 51 52 46
28 27 23 19 19 17 32 43 57 65 82 39 24 22 22 22 21 43 44 50 57 46 34 41 52 52 58 72 70 74 68 76
34 42 33 26 26 26 48 48 54 54 75 70 29 26 25 23 47 64 62 72 63 57 48 54 61 66 77 79 81 82 72 72
82 52 47 44 37 37 44 77 56 55 84 89 58 43 45 41 37 34 44 80 79 79 73 80 71 92 85 100 96 93 100 97
99 76 79 49 66 82 74 85 68 78 72 71 62 39 43 41 33 47 71 94 94 92 95 94 92 83 89 98 100 99 100 98
66 62 65 43 44 63 68 90 72 99 96 87 59 38 28 28 35 64 82 98 95 97 89 88 94 95 100 100 100 97 90 97
28 30 22 34 54 68 85 87 75 66 39 56 36 40 38 34 64 80 90 100 100 100 76 90 100 100 98 100 99 100 100 99
19 19 21 21 22 22 26 45 27 27 24 24 49 59 63 65 88 97 100 100 99 100 86 97 88 100 100 97 97 100 100 86
21 18 17 17 18 18 20 20 22 23 22 44 58 79 80 88 93 99 94 85 74 100 100 100 98 100 100 100 100 100 100 89
90 53 28 42 39 35 28 23 23 23 50 60 84 76 84 78 74 80 100 90 94 100 100 100 100 100 100 100 94 100 92 99
93 88 80 69 68 65 44 25 27 52 62 80 81 73 54 64 84 100 87 77 54 53 63 66 100 100 100 84 93 97 100 100
22 40 69 77 56 32 27 28 48 57 60 50 29 22 52 48 56 60 41 34 34 37 46 61 87 88 79 85 100 96 100 93
14 22 33 35 33 33 37 39 27 14 11 9 22 25 22 12 16 20 22 30 37 43 48 50 54 61 81 98 100 100 100 100
15 22 31 32 25 23 28 22 11 8 7 8 8 8 8 10 12 17 27 37 42 46 48 51 69 79 98 100 100 100 100 100
24 28 34 34 32 31 21 11 8 8 9 9 9 10 11 12 13 18 26 39 47 54 64 81 97 100 99 97 100 100 95 48
32 34 36 36 30 17 11 9 10 10 10 11 12 13 14 15 18 24 35 47 53 63 84 99 100 100 100 97 80 51 22 9

GFSFLT1_500_rhum_051.txt.gz
RH
64 69 57 55 49 44 63 65 70 76 72 80 80 83 94 99 99 100 90 86 76 45 23 18 18 18 16 14 12 12 13 21
60 44 39 43 38 36 28 24 36 54 32 39 40 38 39 41 66 74 89 88 26 18 20 21 18 16 14 14 18 33 31 26
36 41 41 42 38 29 25 20 20 54 57 21 22 22 27 30 39 60 76 48 20 21 21 19 18 16 15 42 47 38 23 17
30 26 23 20 24 21 18 18 23 46 47 52 43 25 38 43 48 44 36 32 24 24 26 26 36 37 48 60 62 40 27 38
43 35 31 21 16 15 14 12 12 19 33 42 54 56 35 28 24 25 34 29 41 43 48 61 59 54 54 61 51 44 39 38
32 32 28 26 25 22 20 17 21 38 50 55 46 40 53 29 25 26 39 40 42 44 50 53 62 72 81 81 71 68 73 62
71 64 67 58 28 28 29 30 24 25 44 65 81 60 70 66 30 34 50 51 44 34 33 48 70 89 90 87 74 66 67 61
71 84 71 90 92 62 72 33 24 54 72 82 97 98 79 89 67 69 70 39 49 47 50 69 81 90 94 90 80 73 78 71
60 72 96 96 79 75 69 54 50 35 81 97 92 78 98 88 96 94 67 56 68 78 81 86 98 95 90 87 99 96 100 100
86 73 44 30 28 54 55 40 49 52 69 83 83 97 29 26 30 32 51 66 94 92 98 92 94 91 85 95 96 98 100 97
79 76 90 77 21 28 27 42 60 66 62 73 61 34 33 27 26 34 60 84 94 92 81 79 82 88 98 99 100 95 79 89
93 94 86 61 24 20 21 23 22 23 26 22 21 24 35 28 26 45 65 75 72 51 45 83 67 58 73 88 94 77 89 40
93 84 84 85 38 21 19 19 20 20 20 28 42 45 41 26 32 46 50 49 27 22 28 44 98 98 60 96 100 85 47 42
39 38 70 86 72 55 52 52 58 66 70 62 46 48 40 26 42 46 30 23 15 9 10 11 12 21 18 22 29 35 38 39
31 30 24 45 83 92 90 89 94 96 92 88 67 42 41 62 57 42 17 13 10 12 13 14 15 16 21 25 29 35 50 62
25 19 14 15 17 31 46 48 40 34 39 44 59 69 61 52 30 11 11 12 13 14 16 17 19 22 25 28 32 39 52 63
10 10 9 10 15 19 20 18 29 51 68 73 62 41 32 14 10 12 11 12 13 15 18 21 25 28 31 35 40 50 62 72
11 12 12 12 11 16 32 51 56 57 51 43 37 23 11 12 12 12 13 15 16 19 26 31 36 39 42 46 50 63 71 76
13 13 14 15 14 24 38 36 41 44 44 37 20 12 14 13 13 15 16 17 21 29 38 46 50 49 54 57 65 72 76 68